| time (UTC) | temp F | wind direction | speed MPH | gust MPH | rain 1hr in | rain 24hr in | rain mn in | humidity % | barometer mb |
| 20260904195523 | 63 | 52 | 1.0 | 5.0 | 0.00 | 0.17 | 0.09 | 77 | 1000.7 |
| 20260904195013 | 63 | 11 | 1.0 | 4.0 | 0.00 | 0.17 | 0.09 | 81 | 1000.8 |
| 20260904194603 | 63 | 360 | 1.0 | 3.0 | 0.00 | 0.17 | 0.09 | 76 | 1000.8 |
| 20260904194055 | 63 | 30 | 1.0 | 3.0 | 0.00 | 0.17 | 0.09 | 75 | 1001.0 |
| 20260904193603 | 63 | 355 | 1.0 | 4.0 | 0.00 | 0.17 | 0.09 | 76 | 1000.9 |
| 20260904193037 | 63 | 350 | 1.0 | 4.0 | 0.00 | 0.17 | 0.09 | 77 | 1000.9 |
| 20260904192546 | 63 | 238 | 1.0 | 3.0 | 0.00 | 0.17 | 0.09 | 81 | 1000.9 |
| 20260904192053 | 61 | 360 | 1.0 | 3.0 | 0.00 | 0.17 | 0.09 | 78 | 1001.0 |
| 20260904191519 | 61 | 39 | 0.0 | 3.0 | 0.00 | 0.17 | 0.09 | 80 | 1000.9 |
| 20260904191035 | 61 | 39 | 1.0 | 2.0 | 0.00 | 0.17 | 0.09 | 80 | 1001.0 |
| 20260904190543 | 61 | 40 | 0.0 | 3.0 | 0.00 | 0.17 | 0.09 | 80 | 1001.2 |
| 20260904190019 | 61 | 40 | 0.0 | 3.0 | 0.00 | 0.17 | 0.09 | 83 | 1001.1 |
| 20260904185525 | 61 | 41 | 1.0 | 5.0 | 0.00 | 0.17 | 0.09 | 83 | 1001.2 |
| 20260904185036 | 61 | 22 | 2.0 | 5.0 | 0.00 | 0.17 | 0.09 | 85 | 1001.1 |
| 20260904184615 | 61 | 42 | 0.0 | 3.0 | 0.00 | 0.17 | 0.09 | 86 | 1001.2 |
| 20260904184005 | 60 | 41 | 0.0 | 0.0 | 0.00 | 0.17 | 0.09 | 85 | 1001.1 |
| 20260904183514 | 59 | 41 | 0.0 | 0.0 | 0.00 | 0.17 | 0.09 | 84 | 1001.0 |
| 20260904183048 | 59 | 41 | 0.0 | 0.0 | 0.00 | 0.17 | 0.09 | 85 | 1000.9 |
| 20260904182559 | 59 | 42 | 0.0 | 0.0 | 0.00 | 0.17 | 0.09 | 84 | 1001.0 |
| 20260904182003 | 59 | 45 | 0.0 | 0.0 | 0.00 | 0.17 | 0.09 | 84 | 1001.0 |
| 20260904181540 | 59 | 45 | 0.0 | 0.0 | 0.00 | 0.17 | 0.09 | 86 | 1000.9 |
| 20260904181045 | 59 | 360 | 0.0 | 1.0 | 0.00 | 0.17 | 0.09 | 85 | 1000.8 |
| 20260904180556 | 59 | 360 | 0.0 | 1.0 | 0.00 | 0.17 | 0.09 | 86 | 1000.9 |
| 20260904180041 | 59 | 360 | 0.0 | 3.0 | 0.00 | 0.17 | 0.09 | 87 | 1000.8 |
| 20260904175530 | 59 | 360 | 1.0 | 3.0 | 0.00 | 0.17 | 0.09 | 87 | 1000.8 |
| 20260904175035 | 58 | 355 | 1.0 | 3.0 | 0.00 | 0.17 | 0.09 | 87 | 1000.7 |
| 20260904174505 | 58 | 355 | 0.0 | 0.0 | 0.00 | 0.17 | 0.09 | 87 | 1000.7 |
| 20260904174020 | 58 | 355 | 0.0 | 0.0 | 0.00 | 0.17 | 0.09 | 88 | 1000.7 |
| 20260904173526 | 58 | 355 | 0.0 | 0.0 | 0.00 | 0.17 | 0.09 | 87 | 1000.7 |
| 20260904173054 | 57 | 355 | 0.0 | 0.0 | 0.00 | 0.17 | 0.09 | 88 | 1000.7 |
| 20260904172556 | 57 | 306 | 0.0 | 3.0 | 0.00 | 0.17 | 0.09 | 88 | 1000.7 |
| 20260904172003 | 57 | 306 | 0.0 | 3.0 | 0.00 | 0.17 | 0.09 | 88 | 1000.7 |
| 20260904171608 | 57 | 306 | 0.0 | 2.0 | 0.00 | 0.17 | 0.09 | 88 | 1000.7 |
| 20260904171046 | 57 | 305 | 0.0 | 3.0 | 0.00 | 0.17 | 0.09 | 88 | 1000.6 |
| 20260904170552 | 57 | 301 | 1.0 | 3.0 | 0.00 | 0.17 | 0.09 | 89 | 1000.6 |
| 20260904170029 | 57 | 301 | 1.0 | 3.0 | 0.00 | 0.17 | 0.09 | 89 | 1000.6 |
| 20260904165533 | 57 | 301 | 0.0 | 3.0 | 0.01 | 0.17 | 0.09 | 89 | 1000.5 |
| 20260904165043 | 57 | 300 | 1.0 | 3.0 | 0.01 | 0.17 | 0.09 | 89 | 1000.5 |
| 20260904164519 | 57 | 300 | 0.0 | 1.0 | 0.01 | 0.17 | 0.09 | 89 | 1000.5 |
| 20260904164027 | 57 | 300 | 0.0 | 2.0 | 0.01 | 0.17 | 0.09 | 89 | 1000.4 |
| 20260904163535 | 57 | 300 | 0.0 | 2.0 | 0.01 | 0.17 | 0.09 | 90 | 1000.4 |
| 20260904163102 | 57 | 300 | 0.0 | 3.0 | 0.01 | 0.17 | 0.09 | 90 | 1000.4 |
| 20260904162506 | 56 | 300 | 1.0 | 3.0 | 0.01 | 0.17 | 0.09 | 90 | 1000.4 |
| 20260904162012 | 56 | 278 | 0.0 | 3.0 | 0.01 | 0.17 | 0.09 | 90 | 1000.3 |
| 20260904161555 | 56 | 278 | 0.0 | 3.0 | 0.01 | 0.17 | 0.09 | 90 | 1000.3 |
| 20260904161044 | 56 | 278 | 0.0 | 0.0 | 0.01 | 0.17 | 0.09 | 91 | 1000.2 |
| 20260904160550 | 55 | 277 | 0.0 | 0.0 | 0.01 | 0.17 | 0.09 | 90 | 1000.2 |
| 20260904160033 | 55 | 276 | 0.0 | 0.0 | 0.01 | 0.21 | 0.09 | 91 | 1000.3 |
| 20260904155529 | 55 | 276 | 0.0 | 0.0 | 0.00 | 0.20 | 0.08 | 91 | 1000.3 |
| 20260904155036 | 54 | 276 | 0.0 | 0.0 | 0.00 | 0.20 | 0.08 | 91 | 1000.3 |
| 20260904154558 | 54 | 276 | 0.0 | 0.0 | 0.00 | 0.20 | 0.08 | 91 | 1000.3 |
| 20260904154007 | 54 | 276 | 0.0 | 0.0 | 0.00 | 0.20 | 0.08 | 91 | 1000.3 |
| 20260904153505 | 54 | 277 | 0.0 | 0.0 | 0.00 | 0.20 | 0.08 | 91 | 1000.3 |
| 20260904153051 | 54 | 277 | 0.0 | 0.0 | 0.00 | 0.20 | 0.08 | 91 | 1000.3 |
| 20260904152549 | 53 | 277 | 0.0 | 0.0 | 0.00 | 0.20 | 0.08 | 91 | 1000.2 |
| 20260904152050 | 53 | 277 | 0.0 | 0.0 | 0.00 | 0.20 | 0.08 | 91 | 1000.1 |
| 20260904151524 | 53 | 277 | 0.0 | 0.0 | 0.00 | 0.20 | 0.08 | 91 | 1000.1 |
| 20260904151030 | 53 | 276 | 0.0 | 0.0 | 0.00 | 0.20 | 0.08 | 91 | 1000.0 |
| 20260904150536 | 53 | 276 | 0.0 | 0.0 | 0.00 | 0.20 | 0.08 | 91 | 1000.1 |
| 20260904150106 | 53 | 276 | 0.0 | 0.0 | 0.00 | 0.22 | 0.08 | 91 | 1000.0 |
| 20260904145517 | 53 | 276 | 0.0 | 0.0 | 0.00 | 0.22 | 0.08 | 91 | 1000.0 |
| 20260904145029 | 53 | 276 | 0.0 | 0.0 | 0.00 | 0.22 | 0.08 | 91 | 999.9 |
| 20260904144550 | 53 | 276 | 0.0 | 0.0 | 0.00 | 0.22 | 0.08 | 91 | 999.8 |
| 20260904144054 | 53 | 276 | 0.0 | 0.0 | 0.00 | 0.22 | 0.08 | 91 | 999.8 |
| 20260904143602 | 53 | 276 | 0.0 | 0.0 | 0.00 | 0.22 | 0.08 | 91 | 999.7 |
| 20260904143028 | 53 | 276 | 0.0 | 0.0 | 0.00 | 0.22 | 0.08 | 91 | 999.7 |
| 20260904142532 | 53 | 276 | 0.0 | 0.0 | 0.00 | 0.22 | 0.08 | 90 | 999.6 |
| 20260904142039 | 53 | 276 | 0.0 | 0.0 | 0.00 | 0.22 | 0.08 | 91 | 999.6 |
| 20260904141516 | 53 | 277 | 0.0 | 0.0 | 0.00 | 0.22 | 0.08 | 90 | 999.6 |
| 20260904141019 | 53 | 276 | 0.0 | 1.0 | 0.00 | 0.22 | 0.08 | 90 | 999.5 |
| 20260904140524 | 53 | 276 | 0.0 | 1.0 | 0.00 | 0.22 | 0.08 | 90 | 999.5 |
| 20260904140053 | 53 | 277 | 0.0 | 1.0 | 0.00 | 0.24 | 0.08 | 90 | 999.4 |
| 20260904135558 | 53 | 276 | 0.0 | 3.0 | 0.00 | 0.24 | 0.08 | 90 | 999.4 |
| 20260904135107 | 53 | 277 | 1.0 | 3.0 | 0.00 | 0.24 | 0.08 | 90 | 999.4 |
| 20260904134548 | 53 | 284 | 0.0 | 0.0 | 0.00 | 0.24 | 0.08 | 90 | 999.4 |
| 20260904134055 | 53 | 284 | 0.0 | 0.0 | 0.00 | 0.24 | 0.08 | 90 | 999.4 |
| 20260904133544 | 53 | 284 | 0.0 | 0.0 | 0.00 | 0.24 | 0.08 | 90 | 999.4 |
| 20260904133030 | 53 | 284 | 0.0 | 0.0 | 0.00 | 0.24 | 0.08 | 90 | 999.3 |
| 20260904132532 | 53 | 284 | 0.0 | 0.0 | 0.00 | 0.24 | 0.08 | 90 | 999.3 |
| 20260904132033 | 53 | 284 | 0.0 | 0.0 | 0.00 | 0.24 | 0.08 | 90 | 999.2 |
| 20260904131601 | 53 | 284 | 0.0 | 0.0 | 0.00 | 0.24 | 0.08 | 90 | 999.2 |
| 20260904131005 | 53 | 284 | 0.0 | 0.0 | 0.00 | 0.24 | 0.08 | 90 | 999.1 |
| 20260904130510 | 53 | 284 | 0.0 | 0.0 | 0.00 | 0.24 | 0.08 | 90 | 999.1 |
| 20260904130044 | 53 | 284 | 0.0 | 0.0 | 0.01 | 0.31 | 0.08 | 90 | 999.1 |
| 20260904125556 | 53 | 284 | 0.0 | 0.0 | 0.01 | 0.31 | 0.08 | 90 | 999.1 |
| 20260904125100 | 53 | 284 | 0.0 | 0.0 | 0.01 | 0.31 | 0.08 | 90 | 999.0 |
| 20260904124509 | 53 | 284 | 0.0 | 0.0 | 0.01 | 0.31 | 0.08 | 90 | 999.0 |
| 20260904124015 | 53 | 284 | 0.0 | 0.0 | 0.01 | 0.31 | 0.08 | 90 | 999.0 |
| 20260904123527 | 53 | 284 | 0.0 | 0.0 | 0.01 | 0.31 | 0.08 | 90 | 999.0 |
| 20260904123054 | 53 | 284 | 0.0 | 0.0 | 0.02 | 0.31 | 0.08 | 90 | 998.9 |
| 20260904122556 | 53 | 284 | 0.0 | 0.0 | 0.02 | 0.31 | 0.08 | 90 | 999.0 |
| 20260904122002 | 53 | 284 | 0.0 | 0.0 | 0.03 | 0.31 | 0.08 | 90 | 998.8 |
| 20260904121539 | 53 | 284 | 0.0 | 0.0 | 0.04 | 0.31 | 0.08 | 90 | 998.7 |
| 20260904121039 | 53 | 284 | 0.0 | 0.0 | 0.04 | 0.31 | 0.08 | 90 | 998.8 |
| 20260904120544 | 53 | 284 | 0.0 | 0.0 | 0.05 | 0.31 | 0.08 | 90 | 998.7 |
| 20260904120018 | 53 | 284 | 0.0 | 0.0 | 0.05 | 0.30 | 0.07 | 90 | 998.6 |
| 20260904115522 | 53 | 284 | 0.0 | 0.0 | 0.05 | 0.30 | 0.07 | 90 | 998.7 |
| 20260904115032 | 53 | 284 | 0.0 | 0.0 | 0.06 | 0.30 | 0.07 | 90 | 998.6 |
| 20260904114605 | 53 | 284 | 0.0 | 0.0 | 0.07 | 0.30 | 0.07 | 90 | 998.6 |
| 20260904114002 | 53 | 284 | 0.0 | 0.0 | 0.07 | 0.30 | 0.07 | 90 | 998.6 |
| 20260904113506 | 53 | 284 | 0.0 | 0.0 | 0.07 | 0.30 | 0.07 | 90 | 998.5 |
| 20260904113033 | 53 | 284 | 0.0 | 0.0 | 0.06 | 0.28 | 0.06 | 90 | 998.5 |
| 20260904112537 | 53 | 284 | 0.0 | 0.0 | 0.06 | 0.28 | 0.06 | 90 | 998.4 |
| 20260904112039 | 52 | 284 | 0.0 | 0.0 | 0.05 | 0.28 | 0.05 | 90 | 998.4 |
| 20260904111515 | 52 | 284 | 0.0 | 0.0 | 0.04 | 0.27 | 0.04 | 90 | 998.3 |
| 20260904111022 | 52 | 284 | 0.0 | 0.0 | 0.04 | 0.27 | 0.04 | 90 | 998.3 |
| 20260904110525 | 52 | 313 | 0.0 | 0.0 | 0.03 | 0.26 | 0.03 | 90 | 998.3 |
| 20260904110050 | 52 | 313 | 0.0 | 0.0 | 0.02 | 0.25 | 0.02 | 90 | 998.2 |
| 20260904105558 | 52 | 313 | 0.0 | 0.0 | 0.02 | 0.25 | 0.02 | 90 | 998.3 |
| 20260904105108 | 52 | 313 | 0.0 | 0.0 | 0.01 | 0.24 | 0.01 | 90 | 998.3 |
| 20260904104600 | 52 | 313 | 0.0 | 0.0 | 0.00 | 0.23 | 0.00 | 89 | 998.3 |
| 20260904104045 | 52 | 313 | 0.0 | 0.0 | 0.00 | 0.23 | 0.00 | 90 | 998.3 |
| 20260904103553 | 52 | 313 | 0.0 | 0.0 | 0.00 | 0.23 | 0.00 | 90 | 998.3 |
| 20260904103024 | 52 | 313 | 0.0 | 0.0 | 0.00 | 0.23 | 0.00 | 89 | 998.2 |
| 20260904102530 | 52 | 313 | 0.0 | 0.0 | 0.00 | 0.23 | 0.00 | 89 | 998.1 |
| 20260904102039 | 52 | 313 | 0.0 | 0.0 | 0.00 | 0.23 | 0.00 | 89 | 998.2 |
| 20260904101505 | 52 | 313 | 0.0 | 0.0 | 0.00 | 0.23 | 0.00 | 89 | 998.3 |
| 20260904101016 | 51 | 313 | 0.0 | 0.0 | 0.00 | 0.23 | 0.00 | 89 | 998.2 |
| 20260904100525 | 51 | 313 | 0.0 | 0.0 | 0.00 | 0.23 | 0.00 | 89 | 998.1 |
| 20260904100109 | 51 | 313 | 0.0 | 0.0 | 0.00 | 0.24 | 0.00 | 89 | 998.1 |
| 20260904095556 | 51 | 313 | 0.0 | 0.0 | 0.00 | 0.24 | 0.00 | 89 | 998.2 |
| 20260904095004 | 51 | 313 | 0.0 | 0.0 | 0.00 | 0.24 | 0.00 | 89 | 998.1 |
| 20260904094550 | 52 | 313 | 0.0 | 0.0 | 0.00 | 0.24 | 0.00 | 89 | 998.2 |
| 20260904094036 | 52 | 313 | 0.0 | 0.0 | 0.00 | 0.24 | 0.00 | 89 | 998.1 |
| 20260904093541 | 52 | 313 | 0.0 | 0.0 | 0.00 | 0.24 | 0.00 | 89 | 998.1 |
| 20260904093017 | 52 | 313 | 0.0 | 0.0 | 0.00 | 0.24 | 0.00 | 89 | 998.1 |
| 20260904092523 | 52 | 313 | 0.0 | 0.0 | 0.00 | 0.24 | 0.00 | 89 | 998.1 |
| 20260904092023 | 52 | 313 | 0.0 | 0.0 | 0.00 | 0.24 | 0.00 | 89 | 997.9 |
| 20260904091552 | 52 | 313 | 0.0 | 0.0 | 0.00 | 0.24 | 0.00 | 89 | 997.9 |
| 20260904091059 | 52 | 313 | 0.0 | 0.0 | 0.00 | 0.24 | 0.00 | 89 | 997.9 |
| 20260904090559 | 53 | 313 | 0.0 | 0.0 | 0.00 | 0.24 | 0.00 | 89 | 997.9 |
| 20260904090034 | 53 | 313 | 0.0 | 0.0 | 0.00 | 0.24 | 0.00 | 89 | 998.0 |
| 20260904085542 | 53 | 313 | 0.0 | 0.0 | 0.00 | 0.24 | 0.00 | 89 | 997.9 |
| 20260904085048 | 53 | 313 | 0.0 | 0.0 | 0.00 | 0.24 | 0.00 | 89 | 997.9 |
| 20260904084518 | 53 | 313 | 0.0 | 0.0 | 0.00 | 0.24 | 0.00 | 89 | 997.9 |
| 20260904084029 | 53 | 313 | 0.0 | 0.0 | 0.00 | 0.24 | 0.00 | 89 | 997.9 |
| 20260904083535 | 53 | 313 | 0.0 | 0.0 | 0.00 | 0.24 | 0.00 | 89 | 997.9 |
| 20260904083102 | 53 | 313 | 0.0 | 0.0 | 0.00 | 0.24 | 0.00 | 89 | 997.9 |
| 20260904082504 | 53 | 313 | 0.0 | 0.0 | 0.00 | 0.24 | 0.00 | 89 | 997.9 |
| 20260904082016 | 53 | 313 | 0.0 | 0.0 | 0.00 | 0.24 | 0.00 | 89 | 998.0 |
| 20260904081548 | 53 | 313 | 0.0 | 0.0 | 0.00 | 0.24 | 0.00 | 89 | 998.0 |
| 20260904081056 | 53 | 313 | 0.0 | 0.0 | 0.00 | 0.24 | 0.00 | 89 | 997.9 |
| 20260904080602 | 53 | 313 | 0.0 | 0.0 | 0.00 | 0.24 | 0.00 | 89 | 998.0 |
| 20260904080040 | 53 | 313 | 0.0 | 0.0 | 0.00 | 0.24 | 0.00 | 89 | 997.9 |
| 20260904075538 | 53 | 313 | 0.0 | 0.0 | 0.00 | 0.24 | 0.00 | 89 | 998.0 |
| 20260904075046 | 53 | 313 | 0.0 | 0.0 | 0.00 | 0.24 | 0.00 | 89 | 998.2 |
| 20260904074528 | 53 | 313 | 0.0 | 0.0 | 0.00 | 0.24 | 0.00 | 89 | 998.1 |
| 20260904074030 | 53 | 313 | 0.0 | 0.0 | 0.00 | 0.24 | 0.00 | 89 | 998.1 |
| 20260904073536 | 53 | 313 | 0.0 | 0.0 | 0.00 | 0.24 | 0.00 | 89 | 998.1 |
| 20260904073013 | 53 | 313 | 0.0 | 0.0 | 0.00 | 0.24 | 0.00 | 88 | 998.0 |
| 20260904072508 | 53 | 313 | 0.0 | 0.0 | 0.00 | 0.24 | 0.00 | 89 | 998.1 |
| 20260904072011 | 53 | 313 | 0.0 | 0.0 | 0.00 | 0.24 | 0.00 | 89 | 998.1 |
| 20260904071553 | 53 | 313 | 0.0 | 0.0 | 0.00 | 0.24 | 0.00 | 89 | 998.0 |
| 20260904071057 | 53 | 313 | 0.0 | 0.0 | 0.00 | 0.24 | 0.00 | 88 | 997.9 |
| 20260904070556 | 53 | 313 | 0.0 | 0.0 | 0.00 | 0.24 | 0.00 | 88 | 997.9 |
| 20260904070040 | 53 | 313 | 0.0 | 0.0 | 0.00 | 0.24 | 0.24 | 88 | 997.9 |
| 20260904065533 | 53 | 313 | 0.0 | 0.0 | 0.00 | 0.24 | 0.24 | 88 | 997.9 |
| 20260904065038 | 54 | 313 | 0.0 | 0.0 | 0.00 | 0.24 | 0.24 | 88 | 998.0 |
| 20260904064607 | 54 | 313 | 0.0 | 0.0 | 0.00 | 0.24 | 0.24 | 88 | 998.0 |
| 20260904064004 | 54 | 313 | 0.0 | 0.0 | 0.00 | 0.24 | 0.24 | 88 | 997.9 |
| 20260904063520 | 54 | 313 | 0.0 | 0.0 | 0.00 | 0.24 | 0.24 | 88 | 997.9 |
| 20260904063044 | 54 | 313 | 0.0 | 0.0 | 0.00 | 0.24 | 0.24 | 88 | 997.9 |
| 20260904062542 | 54 | 313 | 0.0 | 0.0 | 0.00 | 0.24 | 0.24 | 88 | 997.8 |
| 20260904062051 | 54 | 313 | 0.0 | 0.0 | 0.00 | 0.24 | 0.24 | 88 | 997.8 |
| 20260904061527 | 54 | 313 | 0.0 | 0.0 | 0.00 | 0.24 | 0.24 | 88 | 997.8 |
| 20260904061016 | 54 | 313 | 0.0 | 0.0 | 0.00 | 0.24 | 0.24 | 88 | 997.8 |
| 20260904060524 | 54 | 313 | 0.0 | 0.0 | 0.00 | 0.24 | 0.24 | 88 | 997.7 |
| 20260904060120 | 54 | 313 | 0.0 | 0.0 | 0.00 | 0.25 | 0.24 | 88 | 997.8 |
| 20260904055502 | 54 | 313 | 0.0 | 0.0 | 0.00 | 0.25 | 0.24 | 88 | 997.8 |
| 20260904055006 | 54 | 313 | 0.0 | 0.0 | 0.00 | 0.25 | 0.24 | 88 | 997.8 |
| 20260904054548 | 54 | 313 | 0.0 | 0.0 | 0.00 | 0.25 | 0.24 | 88 | 997.9 |
| 20260904054048 | 55 | 313 | 0.0 | 0.0 | 0.00 | 0.25 | 0.24 | 88 | 997.9 |
| 20260904053556 | 55 | 313 | 0.0 | 0.0 | 0.00 | 0.25 | 0.24 | 88 | 997.9 |
| 20260904053110 | 55 | 313 | 0.0 | 0.0 | 0.00 | 0.25 | 0.24 | 88 | 997.8 |
| 20260904052542 | 55 | 313 | 0.0 | 0.0 | 0.00 | 0.25 | 0.24 | 88 | 997.9 |
| 20260904052048 | 55 | 313 | 0.0 | 0.0 | 0.00 | 0.25 | 0.24 | 88 | 997.9 |
| 20260904051529 | 55 | 313 | 0.0 | 0.0 | 0.00 | 0.25 | 0.24 | 88 | 997.8 |
| 20260904051031 | 55 | 313 | 0.0 | 0.0 | 0.00 | 0.25 | 0.24 | 88 | 997.9 |
| 20260904050525 | 55 | 313 | 0.0 | 0.0 | 0.00 | 0.25 | 0.24 | 88 | 998.0 |
| 20260904050036 | 55 | 313 | 0.0 | 0.0 | 0.00 | 0.25 | 0.24 | 88 | 998.0 |
| 20260904045542 | 55 | 313 | 0.0 | 0.0 | 0.00 | 0.25 | 0.24 | 88 | 997.9 |
| 20260904045050 | 55 | 313 | 0.0 | 0.0 | 0.00 | 0.25 | 0.24 | 88 | 997.9 |
| 20260904044515 | 55 | 313 | 0.0 | 1.0 | 0.00 | 0.25 | 0.24 | 88 | 998.0 |
| 20260904044021 | 55 | 313 | 0.0 | 1.0 | 0.00 | 0.25 | 0.24 | 88 | 998.0 |
| 20260904043529 | 55 | 313 | 0.0 | 2.0 | 0.00 | 0.25 | 0.24 | 88 | 998.0 |
| 20260904043014 | 55 | 313 | 0.0 | 2.0 | 0.00 | 0.25 | 0.24 | 88 | 998.0 |
| 20260904042520 | 55 | 313 | 0.0 | 2.0 | 0.00 | 0.25 | 0.24 | 88 | 997.9 |
| 20260904042028 | 55 | 279 | 0.0 | 1.0 | 0.00 | 0.25 | 0.24 | 88 | 997.8 |
| 20260904041557 | 55 | 279 | 0.0 | 0.0 | 0.00 | 0.25 | 0.24 | 88 | 997.8 |
| 20260904041059 | 55 | 278 | 0.0 | 3.0 | 0.00 | 0.25 | 0.24 | 88 | 997.9 |
| 20260904040503 | 55 | 278 | 0.0 | 4.0 | 0.00 | 0.25 | 0.24 | 88 | 997.8 |
| 20260904040046 | 55 | 252 | 1.0 | 4.0 | 0.00 | 0.25 | 0.24 | 88 | 997.9 |
| 20260904035548 | 55 | 24 | 0.0 | 9.0 | 0.00 | 0.25 | 0.24 | 88 | 997.8 |
| 20260904035055 | 55 | 134 | 0.0 | 9.0 | 0.00 | 0.25 | 0.24 | 88 | 997.8 |
| 20260904034529 | 55 | 80 | 0.0 | 0.0 | 0.00 | 0.25 | 0.24 | 88 | 997.8 |
| 20260904034042 | 55 | 80 | 0.0 | 1.0 | 0.00 | 0.25 | 0.24 | 88 | 997.8 |
| 20260904033552 | 55 | 355 | 0.0 | 1.0 | 0.00 | 0.25 | 0.24 | 88 | 997.6 |
| 20260904033026 | 55 | 355 | 0.0 | 2.0 | 0.00 | 0.25 | 0.24 | 87 | 997.6 |
| 20260904032537 | 56 | 355 | 0.0 | 1.0 | 0.00 | 0.25 | 0.24 | 87 | 997.6 |
| 20260904032051 | 56 | 355 | 0.0 | 1.0 | 0.00 | 0.25 | 0.24 | 87 | 997.6 |
| 20260904031525 | 56 | 355 | 0.0 | 0.0 | 0.00 | 0.25 | 0.24 | 87 | 997.5 |
| 20260904031033 | 56 | 355 | 0.0 | 2.0 | 0.00 | 0.25 | 0.24 | 87 | 997.4 |
| 20260904030541 | 56 | 355 | 0.0 | 3.0 | 0.00 | 0.25 | 0.24 | 87 | 997.4 |
| 20260904030007 | 56 | 355 | 0.0 | 3.0 | 0.00 | 0.25 | 0.24 | 87 | 997.4 |
| 20260904025522 | 56 | 247 | 0.0 | 3.0 | 0.00 | 0.25 | 0.24 | 87 | 997.3 |
| 20260904025030 | 56 | 244 | 0.0 | 5.0 | 0.00 | 0.25 | 0.24 | 87 | 997.4 |
| 20260904024619 | 56 | 254 | 0.0 | 5.0 | 0.00 | 0.25 | 0.24 | 87 | 997.4 |
| 20260904024002 | 56 | 94 | 0.0 | 6.0 | 0.00 | 0.25 | 0.24 | 87 | 997.4 |
| 20260904023511 | 56 | 144 | 0.0 | 2.0 | 0.00 | 0.25 | 0.24 | 87 | 997.2 |
| 20260904023053 | 56 | 144 | 0.0 | 0.0 | 0.00 | 0.25 | 0.24 | 86 | 997.3 |
| 20260904022552 | 56 | 144 | 0.0 | 0.0 | 0.00 | 0.25 | 0.24 | 86 | 997.1 |
| 20260904022059 | 56 | 144 | 0.0 | 0.0 | 0.00 | 0.25 | 0.24 | 86 | 997.2 |
| 20260904021535 | 56 | 144 | 0.0 | 0.0 | 0.00 | 0.25 | 0.24 | 86 | 997.2 |
| 20260904021045 | 56 | 144 | 0.0 | 0.0 | 0.00 | 0.25 | 0.24 | 86 | 997.1 |
| 20260904020601 | 56 | 144 | 0.0 | 1.0 | 0.00 | 0.25 | 0.24 | 85 | 997.1 |
| 20260904020023 | 56 | 144 | 0.0 | 1.0 | 0.00 | 0.25 | 0.24 | 85 | 997.1 |
| 20260904015529 | 57 | 144 | 0.0 | 1.0 | 0.00 | 0.25 | 0.24 | 85 | 997.1 |
| 20260904015033 | 57 | 144 | 0.0 | 0.0 | 0.00 | 0.25 | 0.24 | 85 | 997.1 |
| 20260904014501 | 57 | 144 | 0.0 | 2.0 | 0.00 | 0.25 | 0.24 | 85 | 997.1 |
| 20260904014022 | 57 | 144 | 0.0 | 2.0 | 0.00 | 0.25 | 0.24 | 84 | 997.0 |
| 20260904013523 | 57 | 144 | 0.0 | 2.0 | 0.00 | 0.25 | 0.24 | 84 | 997.1 |
| 20260904013051 | 57 | 144 | 0.0 | 1.0 | 0.00 | 0.25 | 0.24 | 84 | 997.1 |
| 20260904012600 | 57 | 144 | 0.0 | 2.0 | 0.00 | 0.25 | 0.24 | 84 | 997.1 |
| 20260904012104 | 57 | 144 | 1.0 | 4.0 | 0.00 | 0.25 | 0.24 | 83 | 997.1 |
| 20260904011538 | 57 | 142 | 1.0 | 4.0 | 0.00 | 0.25 | 0.24 | 83 | 997.2 |
| 20260904011048 | 58 | 339 | 0.0 | 7.0 | 0.00 | 0.25 | 0.24 | 83 | 997.3 |
| 20260904010553 | 58 | 203 | 1.0 | 5.0 | 0.00 | 0.25 | 0.24 | 83 | 997.2 |
| 20260904010025 | 58 | 252 | 0.0 | 4.0 | 0.00 | 0.25 | 0.24 | 83 | 997.1 |
| 20260904005533 | 58 | 203 | 0.0 | 4.0 | 0.00 | 0.25 | 0.24 | 82 | 997.1 |
| 20260904005039 | 58 | 225 | 0.0 | 3.0 | 0.00 | 0.25 | 0.24 | 82 | 997.2 |
| 20260904004510 | 58 | 225 | 0.0 | 5.0 | 0.00 | 0.25 | 0.24 | 81 | 997.2 |
| 20260904004027 | 58 | 186 | 2.0 | 5.0 | 0.00 | 0.25 | 0.24 | 80 | 997.3 |
| 20260904003532 | 59 | 200 | 1.0 | 3.0 | 0.00 | 0.25 | 0.24 | 80 | 997.2 |
| 20260904003109 | 59 | 139 | 0.0 | 3.0 | 0.00 | 0.25 | 0.24 | 79 | 997.2 |
| 20260904002512 | 59 | 109 | 1.0 | 3.0 | 0.00 | 0.25 | 0.24 | 80 | 997.2 |
| 20260904002013 | 59 | 255 | 0.0 | 5.0 | 0.00 | 0.25 | 0.24 | 80 | 997.2 |
| 20260904001535 | 59 | 220 | 0.0 | 7.0 | 0.00 | 0.25 | 0.24 | 81 | 997.3 |
| 20260904001045 | 59 | 219 | 4.0 | 7.0 | 0.00 | 0.25 | 0.24 | 81 | 997.3 |
| 20260904000551 | 59 | 229 | 3.0 | 7.0 | 0.00 | 0.25 | 0.24 | 81 | 997.3 |
| 20260904000015 | 58 | 158 | 1.0 | 4.0 | 0.00 | 0.25 | 0.24 | 83 | 997.4 |
| 20260903235529 | 58 | 5 | 0.0 | 4.0 | 0.00 | 0.25 | 0.24 | 84 | 997.4 |
| 20260903235037 | 58 | 338 | 0.0 | 4.0 | 0.00 | 0.25 | 0.24 | 84 | 997.4 |
| 20260903234501 | 59 | 263 | 1.0 | 4.0 | 0.00 | 0.25 | 0.24 | 84 | 997.4 |
| 20260903234008 | 59 | 169 | 0.0 | 6.0 | 0.01 | 0.25 | 0.24 | 84 | 997.3 |
| 20260903233515 | 59 | 169 | 2.0 | 6.0 | 0.01 | 0.25 | 0.24 | 84 | 997.4 |
| 20260903233118 | 58 | 22 | 1.0 | 2.0 | 0.01 | 0.25 | 0.24 | 86 | 997.3 |
| 20260903232501 | 58 | 21 | 0.0 | 2.0 | 0.01 | 0.25 | 0.24 | 86 | 997.4 |
| 20260903232005 | 58 | 20 | 0.0 | 2.0 | 0.01 | 0.25 | 0.24 | 86 | 997.3 |
| 20260903231549 | 58 | 21 | 0.0 | 2.0 | 0.01 | 0.25 | 0.24 | 86 | 997.3 |
| 20260903231056 | 57 | 21 | 0.0 | 2.0 | 0.02 | 0.25 | 0.24 | 86 | 997.3 |
| 20260903230605 | 57 | 20 | 0.0 | 2.0 | 0.02 | 0.25 | 0.24 | 87 | 997.4 |
| 20260903225547 | 56 | 355 | 0.0 | 3.0 | 0.02 | 0.33 | 0.24 | 86 | 997.5 |
| 20260903225055 | 57 | 355 | 1.0 | 4.0 | 0.02 | 0.33 | 0.24 | 86 | 997.5 |
| 20260903224541 | 57 | 261 | 0.0 | 5.0 | 0.02 | 0.33 | 0.24 | 85 | 997.7 |
| 20260903224039 | 56 | 201 | 0.0 | 10.0 | 0.01 | 0.32 | 0.23 | 85 | 997.8 |
| 20260903223545 | 57 | 195 | 3.0 | 10.0 | 0.01 | 0.32 | 0.23 | 85 | 997.8 |
| 20260903223030 | 57 | 202 | 2.0 | 7.0 | 0.01 | 0.32 | 0.23 | 85 | 997.7 |
| 20260903222532 | 57 | 166 | 1.0 | 8.0 | 0.01 | 0.32 | 0.23 | 85 | 997.7 |
| 20260903222039 | 57 | 186 | 2.0 | 8.0 | 0.01 | 0.32 | 0.23 | 85 | 997.8 |
| 20260903221505 | 57 | 216 | 1.0 | 8.0 | 0.01 | 0.32 | 0.23 | 85 | 997.9 |
| 20260903221020 | 57 | 188 | 0.0 | 7.0 | 0.00 | 0.31 | 0.22 | 85 | 997.8 |
| 20260903220534 | 57 | 188 | 1.0 | 7.0 | 0.00 | 0.31 | 0.22 | 85 | 997.7 |
| 20260903220059 | 57 | 190 | 0.0 | 4.0 | 0.00 | 0.31 | 0.22 | 86 | 997.7 |
| 20260903215505 | 56 | 240 | 2.0 | 4.0 | 0.00 | 0.31 | 0.22 | 86 | 997.7 |
| 20260903215018 | 56 | 110 | 0.0 | 5.0 | 0.00 | 0.31 | 0.22 | 86 | 997.6 |
| 20260903214551 | 56 | 132 | 0.0 | 6.0 | 0.00 | 0.31 | 0.22 | 86 | 997.6 |
| 20260903214057 | 56 | 164 | 1.0 | 8.0 | 0.00 | 0.31 | 0.22 | 86 | 997.8 |
| 20260903213503 | 56 | 196 | 2.0 | 8.0 | 0.01 | 0.31 | 0.22 | 86 | 997.6 |
| 20260903213051 | 56 | 360 | 1.0 | 5.0 | 0.01 | 0.31 | 0.22 | 86 | 997.6 |
| 20260903212546 | 56 | 200 | 2.0 | 5.0 | 0.02 | 0.31 | 0.22 | 87 | 997.7 |
| 20260903212055 | 56 | 175 | 2.0 | 5.0 | 0.03 | 0.31 | 0.22 | 87 | 997.7 |
| 20260903211530 | 56 | 157 | 2.0 | 6.0 | 0.05 | 0.31 | 0.22 | 87 | 997.7 |
| 20260903211034 | 56 | 166 | 2.0 | 6.0 | 0.05 | 0.31 | 0.22 | 87 | 997.8 |
| 20260903210541 | 56 | 178 | 2.0 | 11.0 | 0.05 | 0.31 | 0.22 | 86 | 997.7 |
| 20260903210020 | 56 | 171 | 2.0 | 11.0 | 0.06 | 0.32 | 0.22 | 86 | 997.7 |
| 20260903205530 | 56 | 123 | 1.0 | 6.0 | 0.06 | 0.32 | 0.22 | 86 | 997.9 |
| 20260903205032 | 56 | 184 | 1.0 | 6.0 | 0.06 | 0.32 | 0.22 | 86 | 997.8 |
| 20260903204559 | 56 | 197 | 0.0 | 3.0 | 0.06 | 0.32 | 0.22 | 85 | 997.8 |
| 20260903204017 | 56 | 198 | 0.0 | 4.0 | 0.06 | 0.32 | 0.22 | 84 | 997.8 |
| 20260903203522 | 56 | 197 | 0.0 | 5.0 | 0.05 | 0.31 | 0.21 | 83 | 997.7 |
| 20260903203051 | 57 | 173 | 2.0 | 9.0 | 0.05 | 0.31 | 0.21 | 82 | 997.8 |
| 20260903202556 | 57 | 175 | 3.0 | 9.0 | 0.04 | 0.30 | 0.20 | 82 | 997.9 |
| 20260903202101 | 58 | 195 | 2.0 | 8.0 | 0.03 | 0.28 | 0.19 | 82 | 997.8 |
| 20260903201535 | 59 | 223 | 2.0 | 9.0 | 0.01 | 0.27 | 0.17 | 82 | 997.6 |
| 20260903201044 | 59 | 198 | 2.0 | 7.0 | 0.01 | 0.27 | 0.17 | 82 | 997.6 |
| 20260903200551 | 59 | 186 | 2.0 | 7.0 | 0.01 | 0.27 | 0.17 | 81 | 997.6 |
| 20260903200025 | 60 | 198 | 2.0 | 15.0 | 0.00 | 0.33 | 0.16 | 80 | 997.6 |